Вернуться в каталог

OPS 4682 DEB

АктивенPO
NORAD 51492·DEBRIS·🇺🇸 United States

Запущен Apr 3, 1965 с Vandenberg Space Force Base

Loading…

Ближайшие Пролёты (ближайшие 24 часа)

TLE

УстаревающийSource: Space-Track

Эпоха: Sep 8, 2026, 03:37 UTC

1 51492U 65027GC  26251.15099904  .00000758  00000-0  24917-2 0  9999
2 51492  90.2648  19.6932 0030470  70.3262 107.9965 12.99888806774550

Отслеживайте OPS 4682 DEB в реальном времени с AllMySat

Download on the App Store